COSMOS 2251 DEB, 47071

Orbit data source: Space-Track

COSMOS 2251 DEB, 47071 is space debris in LEO originally from a launch on Wed, 16 Jun 1993 UTC launched from the Plesetsk Missile And Space Complex (PKMTR). The debris from Iridium 33, an American commercial communications satellite, has been tracked extensively since its accidental collision with the defunct Russian satellite Cosmos 2251 in 2009. This event, occurring at high speed in low Earth orbit (LEO), generated thousands of pieces of space debris, significantly increasing the risk of further collisions. The Iridium 33 debris cloud has impacted space traffic management and orbital debris mitigation strategies, making it a subject of ongoing study in space situational awareness.

Loading next visibility...
Identifier
47071, 1993-036BYB
Orbit
LEO
Country
Flag of CISCIS
Related business
Manufacturer
Unknown
Mission
Spacecraft
Bus & Motor
Unknown
Mass
Unknown
Launch date (UTC)
1993-06-16 (33 years ago)
Launch vehicle
Unknown
Launch site
Plesetsk Missile And Space Complex (PKMTR)
Object type
Payload
Rocket body
Debris
Shape & HBR
Unknown shape, 0.1 m
Radar Cross Section
Small (<0.1 m²)

Expand to show TLE details & history
Last TLE update: 1 month ago

TLE from 1 month ago
0 COSMOS 2251 DEB
1 47071U 93036BYB 26205.30639758  .00017210  00000-0  35821-2 0  9998
2 47071  73.8020 190.2918 0082527  16.6295 343.7543 14.57868038643534
Epoch: 2026-07-24T07:21Z
TLE epoch observation values (Epoch: 2026-07-24T07:21:12.750Z)
Latitude
-0.00013°
Longitude
137.95371°
Altitude
646.637 km
Speed
7.564 km/s
True Right ascension
12h 41m 10s
True Declination
0° 00' 00"
Sunlit
Object was in daylight at epoch
Visualization orbit readout
Latitude
Unknown
Longitude
Unknown
Altitude
Unknown
Speed
Unknown
Apparent Right ascension
Unknown
Apparent Declination
Unknown
Sunlit
N/A
Visualization observer readout
Local Sidereal Time
01:29:18
Azimuth
Unknown
Elevation
Unknown
Doppler factor
Unknown
Orbital elements
Apogee altitude
756.081 km
Perigee altitude
639.292 km
Semi-major axis
7,075.823 km
Eccentricity
0.00825
Inclination
73.802°
RAAN
190.2918°
Arg. of periapsis
16.6295°
True anomaly
343.48709°
Mean anomaly
343.7543°
Eccentric anomaly
343.62096°
Mean motion
3.64651 °/min
Orbital period
98.72 mins
BSTAR
0.0035821
Loading maneuver chart data...
Computing Atmospheric mass density...

Documentation

Showing up to 5 results
|